NKS27T KMIA-KDEN

Flight info

Callsign NKS27T
Flight time N/A
Altitude 30000
Route HURCN4 SMELZ Q116 JAWJA CABLO KT15M KM27I/N0470F320 KK42C KIISS CLASH5
Aircraft A320/M-SDE3FGHIRWY/LB1

Departure

Time 2026-05-04 13:52
Airport Miami International Airport (KMIA)

Arrival

Time N/A
Airport Denver International Airport (KDEN)
Time Latitude Longitude Altitude Speed Heading
2026-05-04 13:15 25.79703 -80.28173 19 ft 0 kts 25°
2026-05-04 13:32 25.79702 -80.28173 17 ft 2 kts 25°
2026-05-04 13:32 25.79687 -80.28181 22 ft 2 kts 22°
2026-05-04 13:33 25.79672 -80.28188 18 ft 2 kts 19°
2026-05-04 13:33 25.79656 -80.28193 20 ft 2 kts
2026-05-04 13:33 25.79641 -80.28190 22 ft 2 kts 290°
2026-05-04 13:33 25.79638 -80.28183 23 ft 0 kts 284°
2026-05-04 13:44 25.79641 -80.28193 19 ft 3 kts 285°
2026-05-04 13:44 25.79652 -80.28220 19 ft 5 kts 297°
2026-05-04 13:44 25.79673 -80.28269 18 ft 8 kts 285°
2026-05-04 13:45 25.79675 -80.28336 18 ft 9 kts 267°
2026-05-04 13:45 25.79672 -80.28410 18 ft 10 kts 267°
2026-05-04 13:45 25.79667 -80.28494 18 ft 11 kts 263°
2026-05-04 13:45 25.79654 -80.28568 19 ft 9 kts 258°
2026-05-04 13:46 25.79646 -80.28640 20 ft 9 kts 267°
2026-05-04 13:46 25.79644 -80.28708 20 ft 9 kts 268°
2026-05-04 13:46 25.79643 -80.28783 20 ft 10 kts 270°
2026-05-04 13:46 25.79656 -80.28867 20 ft 12 kts 295°
2026-05-04 13:47 25.79727 -80.28905 22 ft 12 kts 359°
2026-05-04 13:47 25.79813 -80.28905 22 ft 13 kts 360°
2026-05-04 13:47 25.79905 -80.28910 22 ft 13 kts 354°
2026-05-04 13:47 25.79978 -80.28923 21 ft 12 kts 335°
2026-05-04 13:48 25.80007 -80.29009 20 ft 13 kts 269°
2026-05-04 13:48 25.80003 -80.29115 21 ft 14 kts 267°
2026-05-04 13:48 25.79999 -80.29227 21 ft 15 kts 268°
2026-05-04 13:48 25.79993 -80.29358 17 ft 19 kts 267°
2026-05-04 13:49 25.79987 -80.29522 13 ft 23 kts 268°
2026-05-04 13:49 25.79981 -80.29679 14 ft 16 kts 267°
2026-05-04 13:49 25.79975 -80.29811 13 ft 18 kts 268°
2026-05-04 13:49 25.79975 -80.29944 11 ft 17 kts 278°
2026-05-04 13:50 25.80006 -80.30066 13 ft 13 kts 288°
2026-05-04 13:50 25.80024 -80.30113 14 ft 5 kts 308°
2026-05-04 13:50 25.80055 -80.30127 15 ft 5 kts 356°
2026-05-04 13:50 25.80077 -80.30097 14 ft 7 kts 90°
2026-05-04 13:51 25.80076 -80.30024 12 ft 15 kts 89°
2026-05-04 13:51 25.80090 -80.29680 14 ft 78 kts 86°
2026-05-04 13:51 25.80124 -80.28868 21 ft 130 kts 88°
2026-05-04 13:51 25.80169 -80.27693 21 ft 172 kts 87°
2026-05-04 13:52 25.80230 -80.25028 1071 ft 176 kts 86°
2026-05-04 13:52 25.80253 -80.23654 1519 ft 183 kts 84°
2026-05-04 13:52 25.80302 -80.22167 1751 ft 203 kts 83°
2026-05-04 13:53 25.80377 -80.20520 2047 ft 226 kts 83°
2026-05-04 13:53 25.80626 -80.18707 2353 ft 249 kts 65°
2026-05-04 13:53 25.81630 -80.17137 2979 ft 254 kts 38°
2026-05-04 13:54 25.84941 -80.15880 4612 ft 262 kts
2026-05-04 13:54 25.86775 -80.15815 5357 ft 265 kts 358°
2026-05-04 13:54 25.90479 -80.16019 6662 ft 273 kts 342°
2026-05-04 13:55 25.92290 -80.16655 7365 ft 274 kts 339°
2026-05-04 13:55 25.95964 -80.18001 8769 ft 281 kts 337°
2026-05-04 13:55 25.97706 -80.18968 9452 ft 279 kts 320°
2026-05-04 13:56 25.99097 -80.20450 10140 ft 277 kts 304°
2026-05-04 13:56 26.00055 -80.22322 10556 ft 288 kts 290°
2026-05-04 13:56 26.01646 -80.26769 10813 ft 331 kts 290°
2026-05-04 13:57 26.02511 -80.29188 11223 ft 341 kts 290°
2026-05-04 13:57 26.03394 -80.31643 11921 ft 343 kts 290°
2026-05-04 13:58 26.06068 -80.39046 13875 ft 344 kts 289°
2026-05-04 13:58 26.07862 -80.44009 14857 ft 348 kts 289°
2026-05-04 13:58 26.08764 -80.46517 15305 ft 351 kts 289°
2026-05-04 13:59 26.09673 -80.49051 15735 ft 353 kts 289°
2026-05-04 13:59 26.10587 -80.51596 16184 ft 356 kts 288°
2026-05-04 13:59 26.12765 -80.56604 17107 ft 367 kts 301°
2026-05-04 14:00 26.14467 -80.58763 17550 ft 376 kts 312°
2026-05-04 14:00 26.19027 -80.61816 18380 ft 396 kts 330°
2026-05-04 14:00 26.21568 -80.63023 18758 ft 398 kts 330°
2026-05-04 14:01 26.24120 -80.64239 19153 ft 400 kts 330°
2026-05-04 14:01 26.26678 -80.65464 19581 ft 401 kts 330°
2026-05-04 14:01 26.31815 -80.67935 20441 ft 403 kts 330°
2026-05-04 14:02 26.34394 -80.69179 20838 ft 405 kts 330°
2026-05-04 14:02 26.36989 -80.70430 21235 ft 406 kts 330°
2026-05-04 14:02 26.39483 -80.71871 21598 ft 402 kts 321°
2026-05-04 14:02 26.41686 -80.73747 21974 ft 397 kts 312°
2026-05-04 14:03 26.43588 -80.75960 22335 ft 396 kts 308°
2026-05-04 14:03 26.45452 -80.78225 22687 ft 397 kts 308°
2026-05-04 14:03 26.47323 -80.80500 23047 ft 399 kts 308°
2026-05-04 14:03 26.49203 -80.82784 23389 ft 400 kts 308°
2026-05-04 14:04 26.52992 -80.87373 23992 ft 403 kts 308°
2026-05-04 14:04 26.54899 -80.89678 24298 ft 404 kts 308°
2026-05-04 14:04 26.56786 -80.91957 24585 ft 406 kts 309°
2026-05-04 14:05 26.60626 -80.96594 25247 ft 407 kts 308°
2026-05-04 14:05 26.62546 -80.98923 25582 ft 407 kts 308°
2026-05-04 14:05 26.64456 -81.01244 26029 ft 404 kts 308°
2026-05-04 14:06 26.66356 -81.03550 26492 ft 402 kts 308°
2026-05-04 14:06 26.68242 -81.05842 26951 ft 399 kts 308°
2026-05-04 14:06 26.70117 -81.08123 27415 ft 397 kts 308°
2026-05-04 14:06 26.71982 -81.10390 27882 ft 395 kts 308°
2026-05-04 14:07 26.73836 -81.12647 28340 ft 393 kts 308°
2026-05-04 14:07 26.75677 -81.14894 28800 ft 391 kts 308°
2026-05-04 14:07 26.77512 -81.17134 29268 ft 389 kts 307°
2026-05-04 14:07 26.79335 -81.19356 29735 ft 387 kts 307°
2026-05-04 14:08 26.81151 -81.21570 30026 ft 386 kts 307°
2026-05-04 14:08 26.84833 -81.26078 30071 ft 400 kts 307°
2026-05-04 14:09 26.90486 -81.32991 30070 ft 404 kts 308°
2026-05-04 14:10 26.96180 -81.39950 30076 ft 404 kts 308°
2026-05-04 14:10 26.99972 -81.44596 30080 ft 404 kts 308°
2026-05-04 14:11 27.03761 -81.49253 30075 ft 404 kts 308°
2026-05-04 14:11 27.08250 -81.53163 30078 ft 414 kts 321°
2026-05-04 14:11 27.10674 -81.54906 30080 ft 414 kts 321°
2026-05-04 14:12 27.15522 -81.58398 30085 ft 414 kts 321°
2026-05-04 14:13 27.22794 -81.63642 30118 ft 414 kts 321°
2026-05-04 14:13 27.27645 -81.67141 30118 ft 414 kts 321°
2026-05-04 14:14 27.32493 -81.70651 30111 ft 414 kts 321°
2026-05-04 14:14 27.39745 -81.75915 30108 ft 414 kts 321°
2026-05-04 14:15 27.49809 -81.82315 30103 ft 422 kts 329°
2026-05-04 14:16 27.57893 -81.86243 30105 ft 422 kts 329°
2026-05-04 14:17 27.65977 -81.90187 30108 ft 422 kts 329°
2026-05-04 14:18 27.74024 -81.94111 30111 ft 422 kts 329°
2026-05-04 14:19 27.84805 -81.99390 30172 ft 422 kts 329°
2026-05-04 14:19 27.90192 -82.02037 30154 ft 422 kts 329°
2026-05-04 14:20 27.95580 -82.04689 30133 ft 422 kts 329°
2026-05-04 14:20 28.00973 -82.07341 30127 ft 423 kts 329°
2026-05-04 14:21 28.08962 -82.11496 30121 ft 415 kts 321°
2026-05-04 14:21 28.13669 -82.15222 30135 ft 413 kts 319°
2026-05-04 14:22 28.18368 -82.18964 30162 ft 413 kts 319°
2026-05-04 14:22 28.23068 -82.22708 30155 ft 413 kts 319°
2026-05-04 14:23 28.30112 -82.28340 30143 ft 413 kts 319°
2026-05-04 14:24 28.34807 -82.32100 30126 ft 413 kts 319°
2026-05-04 14:24 28.39473 -82.35843 30129 ft 413 kts 319°
2026-05-04 14:25 28.44161 -82.39608 30130 ft 413 kts 319°
2026-05-04 14:25 28.51204 -82.45257 30159 ft 413 kts 319°
2026-05-04 14:26 28.55886 -82.49027 30150 ft 412 kts 319°
2026-05-04 14:26 28.60565 -82.52801 30128 ft 412 kts 319°
2026-05-04 14:27 28.65243 -82.56582 30122 ft 412 kts 319°
2026-05-04 14:27 28.69922 -82.60358 30126 ft 412 kts 319°
2026-05-04 14:28 28.74575 -82.64105 30125 ft 412 kts 319°
2026-05-04 14:28 28.79253 -82.67883 30157 ft 412 kts 319°
2026-05-04 14:29 28.88571 -82.75451 30157 ft 411 kts 319°
2026-05-04 14:30 28.93231 -82.79228 30144 ft 410 kts 319°
2026-05-04 14:31 29.00210 -82.84898 30134 ft 411 kts 319°
2026-05-04 14:32 29.09481 -82.92460 30172 ft 411 kts 319°
2026-05-04 14:32 29.14128 -82.96252 30163 ft 410 kts 319°
2026-05-04 14:33 29.18775 -83.00047 30158 ft 410 kts 319°
2026-05-04 14:33 29.23417 -83.03837 30148 ft 410 kts 319°
2026-05-04 14:34 29.27267 -83.06993 30147 ft 410 kts 319°
2026-05-04 14:34 29.31899 -83.10797 30148 ft 410 kts 319°
2026-05-04 14:35 29.36534 -83.14608 30180 ft 410 kts 319°
2026-05-04 14:35 29.41171 -83.18411 30157 ft 410 kts 319°
2026-05-04 14:36 29.45809 -83.22215 30151 ft 410 kts 319°
2026-05-04 14:36 29.50443 -83.26029 30146 ft 410 kts 319°
2026-05-04 14:37 29.55078 -83.29853 30139 ft 410 kts 319°
2026-05-04 14:37 29.59708 -83.33679 30140 ft 410 kts 319°
2026-05-04 14:38 29.64338 -83.37507 30140 ft 410 kts 319°
2026-05-04 14:38 29.68968 -83.41339 30177 ft 410 kts 319°
2026-05-04 14:39 29.73599 -83.45170 30168 ft 410 kts 319°
2026-05-04 14:39 29.78229 -83.49004 30158 ft 410 kts 319°
2026-05-04 14:40 29.85136 -83.54748 30152 ft 410 kts 319°
2026-05-04 14:40 29.89763 -83.58591 30148 ft 410 kts 319°
2026-05-04 14:41 29.94389 -83.62438 30145 ft 410 kts 319°
2026-05-04 14:42 30.03642 -83.70150 30151 ft 411 kts 319°
2026-05-04 14:42 30.08279 -83.74017 30145 ft 411 kts 319°
2026-05-04 14:43 30.12910 -83.77889 30143 ft 411 kts 319°
2026-05-04 14:43 30.17349 -83.81988 30144 ft 404 kts 309°
2026-05-04 14:44 30.20659 -83.87164 30146 ft 400 kts 301°
2026-05-04 14:44 30.23804 -83.92474 30135 ft 400 kts 301°
2026-05-04 14:45 30.26960 -83.97784 30177 ft 400 kts 301°
2026-05-04 14:45 30.30113 -84.03096 30156 ft 401 kts 301°
2026-05-04 14:46 30.33262 -84.08419 30143 ft 401 kts 301°
2026-05-04 14:46 30.36409 -84.13750 30140 ft 401 kts 301°
2026-05-04 14:47 30.39558 -84.19091 30139 ft 401 kts 301°
2026-05-04 14:47 30.42700 -84.24436 30139 ft 402 kts 301°
2026-05-04 14:48 30.45842 -84.29786 30134 ft 402 kts 301°
2026-05-04 14:48 30.48983 -84.35134 30141 ft 401 kts 301°
2026-05-04 14:49 30.52122 -84.40477 30134 ft 401 kts 301°
2026-05-04 14:49 30.55233 -84.45784 30135 ft 400 kts 301°
2026-05-04 14:50 30.58360 -84.51130 30138 ft 400 kts 301°
2026-05-04 14:50 30.61486 -84.56472 30133 ft 400 kts 301°
2026-05-04 14:51 30.64603 -84.61819 30134 ft 400 kts 301°
2026-05-04 14:51 30.67715 -84.67177 30122 ft 400 kts 301°
2026-05-04 14:52 30.70822 -84.72532 30121 ft 400 kts 301°
2026-05-04 14:52 30.73933 -84.77884 30124 ft 400 kts 301°
2026-05-04 14:53 30.77039 -84.83240 30130 ft 400 kts 301°
2026-05-04 14:53 30.80122 -84.88612 30133 ft 399 kts 300°
2026-05-04 14:54 30.83174 -84.94014 30134 ft 399 kts 300°
2026-05-04 14:54 30.86203 -84.99376 30156 ft 399 kts 300°
2026-05-04 14:55 30.89256 -85.04778 30140 ft 400 kts 300°
2026-05-04 14:55 30.92310 -85.10184 30137 ft 400 kts 300°
2026-05-04 14:56 30.95365 -85.15593 30130 ft 400 kts 300°
2026-05-04 14:56 30.98413 -85.21009 30124 ft 400 kts 300°
2026-05-04 14:57 31.01464 -85.26426 30134 ft 400 kts 300°
2026-05-04 14:57 31.04518 -85.31848 30136 ft 400 kts 300°
2026-05-04 14:58 31.07564 -85.37270 30142 ft 400 kts 300°
2026-05-04 14:58 31.10606 -85.42697 30144 ft 400 kts 300°
2026-05-04 14:59 31.13639 -85.48128 30160 ft 399 kts 300°
2026-05-04 15:00 31.18184 -85.56266 30155 ft 399 kts 300°
2026-05-04 15:00 31.21217 -85.61699 30138 ft 399 kts 300°
2026-05-04 15:01 31.25757 -85.69847 30131 ft 399 kts 300°
2026-05-04 15:01 31.28779 -85.75287 30126 ft 399 kts 300°
2026-05-04 15:02 31.31778 -85.80697 30143 ft 399 kts 300°
2026-05-04 15:02 31.34796 -85.86146 30142 ft 399 kts 300°
2026-05-04 15:03 31.37819 -85.91594 30142 ft 399 kts 300°
2026-05-04 15:03 31.40841 -85.97052 30136 ft 399 kts 300°
2026-05-04 15:04 31.43855 -86.02509 30124 ft 399 kts 300°
2026-05-04 15:04 31.46863 -86.07972 30159 ft 399 kts 299°
2026-05-04 15:05 31.49878 -86.13448 30122 ft 400 kts 299°
2026-05-04 15:05 31.52892 -86.18944 30108 ft 401 kts 299°
2026-05-04 15:06 31.55915 -86.24448 30112 ft 401 kts 300°
2026-05-04 15:07 31.60418 -86.32657 30112 ft 401 kts 299°
2026-05-04 15:07 31.63420 -86.38158 30089 ft 400 kts 299°
2026-05-04 15:08 31.66424 -86.43658 30102 ft 400 kts 299°
2026-05-04 15:08 31.69424 -86.49160 30098 ft 400 kts 299°
2026-05-04 15:09 31.72424 -86.54669 30108 ft 400 kts 299°
2026-05-04 15:09 31.75417 -86.60174 30162 ft 399 kts 299°
2026-05-04 15:10 31.79895 -86.68434 30141 ft 400 kts 299°
2026-05-04 15:11 31.84374 -86.76699 30109 ft 400 kts 299°
2026-05-04 15:11 31.87361 -86.82221 30087 ft 400 kts 299°
2026-05-04 15:12 31.90342 -86.87742 30066 ft 400 kts 299°
2026-05-04 15:12 31.93299 -86.93232 30033 ft 400 kts 299°
2026-05-04 15:13 31.96277 -86.98759 30027 ft 400 kts 299°
2026-05-04 15:13 31.99249 -87.04286 30025 ft 399 kts 299°
2026-05-04 15:14 32.02214 -87.09818 30031 ft 399 kts 299°
2026-05-04 15:14 32.05179 -87.15350 30077 ft 399 kts 299°
2026-05-04 15:15 32.08144 -87.20891 30042 ft 400 kts 299°
2026-05-04 15:15 32.11111 -87.26442 30050 ft 400 kts 299°
2026-05-04 15:16 32.15564 -87.34788 30042 ft 401 kts 299°
2026-05-04 15:17 32.20007 -87.43135 30063 ft 400 kts 298°
2026-05-04 15:17 32.24430 -87.51488 30063 ft 400 kts 299°
2026-05-04 15:18 32.27386 -87.57051 30082 ft 400 kts 299°
2026-05-04 15:19 32.31792 -87.65371 30081 ft 400 kts 298°
2026-05-04 15:19 32.36234 -87.73780 30084 ft 401 kts 298°
2026-05-04 15:20 32.39185 -87.79376 30093 ft 401 kts 298°
2026-05-04 15:20 32.42115 -87.84949 30092 ft 401 kts 298°
2026-05-04 15:21 32.45061 -87.90560 30095 ft 401 kts 298°
2026-05-04 15:22 32.49477 -87.98983 30104 ft 401 kts 298°
2026-05-04 15:22 32.53904 -88.07405 30120 ft 402 kts 298°
2026-05-04 15:23 32.56863 -88.13015 30124 ft 401 kts 299°
2026-05-04 15:23 32.59822 -88.18626 30131 ft 401 kts 298°
2026-05-04 15:24 32.65710 -88.29871 30127 ft 402 kts 298°
2026-05-04 15:25 32.68662 -88.35514 30121 ft 403 kts 298°
2026-05-04 15:26 32.73096 -88.43995 30117 ft 403 kts 298°
2026-05-04 15:26 32.77026 -88.51540 30104 ft 403 kts 298°
2026-05-04 15:27 32.81443 -88.60033 30121 ft 403 kts 298°
2026-05-04 15:28 32.85852 -88.68531 30118 ft 402 kts 298°
2026-05-04 15:29 32.90255 -88.77026 30149 ft 402 kts 298°
2026-05-04 15:30 33.00515 -88.96939 30044 ft 403 kts 298°
2026-05-04 15:31 33.04887 -89.05450 30002 ft 403 kts 298°
2026-05-04 15:32 33.09268 -89.14002 30136 ft 403 kts 298°
2026-05-04 15:32 33.12186 -89.19708 30122 ft 403 kts 298°
2026-05-04 15:34 33.19468 -89.33996 30092 ft 403 kts 298°
2026-05-04 15:34 33.23836 -89.42576 30042 ft 403 kts 298°
2026-05-04 15:35 33.28200 -89.51166 30045 ft 403 kts 298°
2026-05-04 15:36 33.32531 -89.59732 30044 ft 403 kts 298°
2026-05-04 15:36 33.35432 -89.65468 30040 ft 403 kts 298°
2026-05-04 15:37 33.38329 -89.71208 30075 ft 403 kts 298°
2026-05-04 15:37 33.41221 -89.76956 30071 ft 403 kts 298°
2026-05-04 15:38 33.44106 -89.82713 30070 ft 403 kts 298°
2026-05-04 15:38 33.46993 -89.88469 30072 ft 403 kts 298°
2026-05-04 15:39 33.49888 -89.94227 30081 ft 403 kts 298°
2026-05-04 15:40 33.54212 -90.02866 30089 ft 403 kts 298°
2026-05-04 15:40 33.57082 -90.08628 30095 ft 402 kts 298°
2026-05-04 15:41 33.59931 -90.14351 30095 ft 402 kts 298°
2026-05-04 15:41 33.62796 -90.20113 30091 ft 402 kts 298°
2026-05-04 15:42 33.65661 -90.25881 30088 ft 402 kts 298°
2026-05-04 15:42 33.68518 -90.31647 30100 ft 402 kts 298°
2026-05-04 15:43 33.71374 -90.37417 30078 ft 402 kts 298°
2026-05-04 15:43 33.74231 -90.43191 30067 ft 402 kts 298°
2026-05-04 15:44 33.77079 -90.48965 30060 ft 401 kts 298°
2026-05-04 15:44 33.79921 -90.54739 30052 ft 401 kts 298°
2026-05-04 15:45 33.82768 -90.60516 30041 ft 401 kts 298°
2026-05-04 15:45 33.85614 -90.66286 30043 ft 401 kts 298°
2026-05-04 15:46 33.88443 -90.72069 30044 ft 401 kts 298°
2026-05-04 15:46 33.91251 -90.77816 30035 ft 401 kts 298°
2026-05-04 15:47 33.94098 -90.83631 30057 ft 400 kts 298°
2026-05-04 15:47 33.96922 -90.89412 30081 ft 400 kts 298°
2026-05-04 15:48 33.99721 -90.95160 30073 ft 401 kts 298°
2026-05-04 15:48 34.03951 -91.03860 30062 ft 401 kts 298°
2026-05-04 15:49 34.06768 -91.09668 30060 ft 401 kts 298°
2026-05-04 15:49 34.09582 -91.15481 30040 ft 401 kts 298°
2026-05-04 15:50 34.12389 -91.21293 30048 ft 400 kts 298°
2026-05-04 15:50 34.15191 -91.27098 30054 ft 400 kts 298°
2026-05-04 15:51 34.17992 -91.32898 30058 ft 400 kts 298°
2026-05-04 15:51 34.20790 -91.38700 30075 ft 399 kts 298°
2026-05-04 15:52 34.23579 -91.44509 30057 ft 400 kts 298°
2026-05-04 15:52 34.26374 -91.50330 30047 ft 401 kts 298°
2026-05-04 15:53 34.29170 -91.56170 30039 ft 401 kts 298°
2026-05-04 15:53 34.31955 -91.62001 30048 ft 400 kts 298°
2026-05-04 15:54 34.34733 -91.67829 30052 ft 400 kts 298°
2026-05-04 15:54 34.37510 -91.73654 30046 ft 399 kts 298°
2026-05-04 15:55 34.40281 -91.79478 30046 ft 399 kts 298°
2026-05-04 15:55 34.43053 -91.85302 30042 ft 399 kts 298°
2026-05-04 15:56 34.45798 -91.91087 30032 ft 399 kts 298°
2026-05-04 15:56 34.48550 -91.96913 30055 ft 398 kts 298°
2026-05-04 15:57 34.51289 -92.02748 30051 ft 398 kts 298°
2026-05-04 15:57 34.53963 -92.08629 30038 ft 398 kts 297°
2026-05-04 15:58 34.56619 -92.14532 30034 ft 398 kts 297°
2026-05-04 15:58 34.59284 -92.20426 30035 ft 399 kts 297°
2026-05-04 15:59 34.61952 -92.26324 30037 ft 399 kts 297°
2026-05-04 15:59 34.64612 -92.32227 30030 ft 398 kts 297°
2026-05-04 16:00 34.67262 -92.38119 30041 ft 397 kts 297°
2026-05-04 16:00 34.69901 -92.43998 30037 ft 396 kts 297°
2026-05-04 16:01 34.72522 -92.49838 30051 ft 396 kts 298°
2026-05-04 16:01 34.75184 -92.55767 30028 ft 397 kts 298°
2026-05-04 16:02 34.77829 -92.61675 30008 ft 398 kts 297°
2026-05-04 16:03 34.81777 -92.70521 29978 ft 398 kts 298°
2026-05-04 16:03 34.84415 -92.76438 29989 ft 397 kts 297°
2026-05-04 16:04 34.87044 -92.82353 29994 ft 397 kts 297°
2026-05-04 16:04 34.90982 -92.91222 29985 ft 396 kts 297°
2026-05-04 16:05 34.93596 -92.97133 29984 ft 396 kts 297°
2026-05-04 16:06 34.97511 -93.06007 29962 ft 397 kts 298°
2026-05-04 16:07 35.02732 -93.17852 29958 ft 396 kts 298°
2026-05-04 16:08 35.07936 -93.29702 29952 ft 396 kts 298°
2026-05-04 16:09 35.14404 -93.44498 29952 ft 396 kts 298°
2026-05-04 16:10 35.19599 -93.56411 29969 ft 396 kts 298°
2026-05-04 16:11 35.24756 -93.68295 29938 ft 398 kts 298°
2026-05-04 16:12 35.32532 -93.86276 29943 ft 398 kts 298°
2026-05-04 16:13 35.37675 -93.98257 29950 ft 397 kts 297°
2026-05-04 16:14 35.42806 -94.10232 29939 ft 397 kts 298°
2026-05-04 16:16 35.49218 -94.25233 29933 ft 397 kts 297°
2026-05-04 16:17 35.55573 -94.40203 29938 ft 396 kts 297°
2026-05-04 16:18 35.60660 -94.52206 29934 ft 396 kts 297°
2026-05-04 16:19 35.66554 -94.66202 29964 ft 395 kts 297°
2026-05-04 16:20 35.72867 -94.81247 29911 ft 397 kts 297°
2026-05-04 16:22 35.79186 -94.96353 29878 ft 397 kts 297°
2026-05-04 16:23 35.86711 -95.14466 29906 ft 395 kts 297°
2026-05-04 16:25 35.94194 -95.32556 29875 ft 394 kts 297°
2026-05-04 16:26 36.02841 -95.53614 29859 ft 393 kts 297°
2026-05-04 16:28 36.09004 -95.68679 29835 ft 393 kts 297°
2026-05-04 16:29 36.17594 -95.89810 29827 ft 393 kts 297°
2026-05-04 16:31 36.23715 -96.04961 29846 ft 394 kts 297°
2026-05-04 16:32 36.31007 -96.23101 29833 ft 392 kts 297°
2026-05-04 16:33 36.35854 -96.35204 29836 ft 392 kts 296°
2026-05-04 16:34 36.39487 -96.44331 29794 ft 394 kts 296°
2026-05-04 16:35 36.46744 -96.62586 29793 ft 392 kts 296°
2026-05-04 16:36 36.50343 -96.71699 29788 ft 391 kts 296°
2026-05-04 16:37 36.53947 -96.80811 29787 ft 391 kts 296°
2026-05-04 16:38 36.58704 -96.92922 29800 ft 390 kts 296°
2026-05-04 16:39 36.64645 -97.08089 29802 ft 390 kts 296°
2026-05-04 16:40 36.69379 -97.20236 29804 ft 390 kts 296°
2026-05-04 16:41 36.75267 -97.35433 29785 ft 389 kts 296°
2026-05-04 16:43 36.81159 -97.50678 29733 ft 391 kts 296°
2026-05-04 16:43 36.84700 -97.59877 29701 ft 392 kts 295°
2026-05-04 16:45 36.91668 -97.78100 29750 ft 384 kts 295°
2026-05-04 16:46 36.97388 -97.93102 29792 ft 383 kts 295°
2026-05-04 16:47 37.01925 -98.05173 29749 ft 383 kts 294°
2026-05-04 16:48 37.06337 -98.17298 29757 ft 382 kts 294°
2026-05-04 16:49 37.10750 -98.29417 29743 ft 382 kts 294°
2026-05-04 16:50 37.15141 -98.41525 29733 ft 381 kts 294°
2026-05-04 16:51 37.18408 -98.50584 29750 ft 380 kts 293°
2026-05-04 16:52 37.22766 -98.62682 29706 ft 381 kts 293°
2026-05-04 16:53 37.26030 -98.71770 29675 ft 381 kts 293°
2026-05-04 16:54 37.30361 -98.83877 29714 ft 379 kts 293°
2026-05-04 16:55 37.36799 -99.01994 29703 ft 378 kts 293°
2026-05-04 16:56 37.42141 -99.17084 29689 ft 379 kts 292°
2026-05-04 16:57 37.45345 -99.26172 29693 ft 379 kts 292°
2026-05-04 16:58 37.49601 -99.38296 29695 ft 378 kts 292°
2026-05-04 17:00 37.55965 -99.56501 29672 ft 379 kts 292°
2026-05-04 17:01 37.61255 -99.71717 29743 ft 378 kts 292°
2026-05-04 17:02 37.65448 -99.83838 29744 ft 378 kts 292°
2026-05-04 17:03 37.68594 -99.92972 29762 ft 379 kts 292°
2026-05-04 17:03 37.71737 -100.02130 29765 ft 379 kts 292°
2026-05-04 17:04 37.75929 -100.14358 29789 ft 379 kts 291°
2026-05-04 17:05 37.80098 -100.26598 29739 ft 379 kts 291°
2026-05-04 17:06 37.83217 -100.35776 29718 ft 379 kts 291°
2026-05-04 17:07 37.85629 -100.42896 29742 ft 379 kts 291°
2026-05-04 17:07 37.88400 -100.51099 29765 ft 379 kts 291°
2026-05-04 17:08 37.91150 -100.59263 29768 ft 379 kts 291°
2026-05-04 17:09 37.93213 -100.65411 29775 ft 380 kts 291°
2026-05-04 17:09 37.95616 -100.72572 29779 ft 380 kts 291°
2026-05-04 17:10 38.00427 -100.86973 29692 ft 381 kts 291°
2026-05-04 17:11 38.02484 -100.93157 29698 ft 381 kts 291°
2026-05-04 17:12 38.05570 -101.02440 29703 ft 381 kts 291°
2026-05-04 17:13 38.10687 -101.17928 29705 ft 381 kts 291°
2026-05-04 17:14 38.14772 -101.30329 29726 ft 380 kts 290°
2026-05-04 17:15 38.17818 -101.39630 29691 ft 381 kts 290°
2026-05-04 17:16 38.22923 -101.51467 29690 ft 385 kts 299°
2026-05-04 17:17 38.28671 -101.62959 29697 ft 385 kts 298°
2026-05-04 17:18 38.34397 -101.74476 29707 ft 385 kts 298°
2026-05-04 17:19 38.40194 -101.86151 29742 ft 390 kts 298°
2026-05-04 17:20 38.45931 -101.97755 29736 ft 386 kts 298°
2026-05-04 17:20 38.50216 -102.06451 29751 ft 385 kts 298°
2026-05-04 17:21 38.55913 -102.18049 29730 ft 385 kts 298°
2026-05-04 17:22 38.58754 -102.23856 29730 ft 385 kts 298°
2026-05-04 17:23 38.64424 -102.35500 29733 ft 386 kts 298°
2026-05-04 17:24 38.68670 -102.44246 29733 ft 386 kts 298°
2026-05-04 17:25 38.74302 -102.55900 29729 ft 386 kts 298°
2026-05-04 17:26 38.79948 -102.67618 29719 ft 386 kts 298°
2026-05-04 17:27 38.86988 -102.82284 29697 ft 387 kts 297°
2026-05-04 17:28 38.92638 -102.94109 29734 ft 391 kts 297°
2026-05-04 17:29 39.01167 -103.11813 29719 ft 387 kts 298°
2026-05-04 17:31 39.08231 -103.26531 29722 ft 386 kts 297°
2026-05-04 17:31 39.12390 -103.35328 27889 ft 378 kts 297°
2026-05-04 17:32 39.15112 -103.41097 26776 ft 376 kts 298°
2026-05-04 17:33 39.19183 -103.49753 25100 ft 377 kts 298°
2026-05-04 17:33 39.20543 -103.52646 24449 ft 379 kts 298°
2026-05-04 17:34 39.24676 -103.61432 22394 ft 385 kts 298°
2026-05-04 17:34 39.26059 -103.64372 21955 ft 380 kts 298°
2026-05-04 17:35 39.30155 -103.72932 21161 ft 372 kts 301°
2026-05-04 17:35 39.33076 -103.78421 20644 ft 370 kts 303°
2026-05-04 17:35 39.34550 -103.81138 20378 ft 369 kts 303°
2026-05-04 17:36 39.36015 -103.83852 20154 ft 368 kts 303°
2026-05-04 17:36 39.37467 -103.86568 19813 ft 366 kts 303°
2026-05-04 17:36 39.38884 -103.89240 19367 ft 365 kts 303°
2026-05-04 17:36 39.40308 -103.91943 19055 ft 361 kts 302°
2026-05-04 17:37 39.41673 -103.94542 18894 ft 338 kts 302°
2026-05-04 17:37 39.42968 -103.97005 18439 ft 326 kts 302°
2026-05-04 17:37 39.44231 -103.99406 18189 ft 322 kts 303°
2026-05-04 17:37 39.45524 -104.01762 17945 ft 321 kts 304°
2026-05-04 17:38 39.46854 -104.04077 17674 ft 320 kts 305°
2026-05-04 17:38 39.48195 -104.06367 17412 ft 318 kts 306°
2026-05-04 17:38 39.49530 -104.08642 17151 ft 316 kts 305°
2026-05-04 17:38 39.50851 -104.10905 16888 ft 314 kts 305°
2026-05-04 17:39 39.53458 -104.15427 16370 ft 313 kts 306°
2026-05-04 17:39 39.54754 -104.17684 16118 ft 311 kts 306°
2026-05-04 17:39 39.56043 -104.19917 15879 ft 308 kts 306°
2026-05-04 17:40 39.57356 -104.22112 15645 ft 307 kts 307°
2026-05-04 17:40 39.58685 -104.24280 15413 ft 307 kts 308°
2026-05-04 17:40 39.60005 -104.26421 15189 ft 308 kts 308°
2026-05-04 17:40 39.61333 -104.28583 14963 ft 305 kts 308°
2026-05-04 17:41 39.62644 -104.30728 14736 ft 302 kts 308°
2026-05-04 17:41 39.63939 -104.32851 14512 ft 299 kts 308°
2026-05-04 17:41 39.65230 -104.34967 14291 ft 299 kts 308°
2026-05-04 17:41 39.66517 -104.37083 14071 ft 299 kts 308°
2026-05-04 17:42 39.67804 -104.39207 13852 ft 298 kts 308°
2026-05-04 17:42 39.69081 -104.41324 13627 ft 297 kts 309°
2026-05-04 17:42 39.70348 -104.43423 13377 ft 294 kts 308°
2026-05-04 17:42 39.71597 -104.45485 13149 ft 294 kts 310°
2026-05-04 17:43 39.73055 -104.47334 12887 ft 294 kts 323°
2026-05-04 17:43 39.74812 -104.48668 12633 ft 292 kts 336°
2026-05-04 17:43 39.76743 -104.49456 12378 ft 291 kts 344°
2026-05-04 17:43 39.78704 -104.50129 12130 ft 291 kts 344°
2026-05-04 17:44 39.80654 -104.50802 11879 ft 289 kts 343°
2026-05-04 17:44 39.82599 -104.51475 11625 ft 290 kts 344°
2026-05-04 17:44 39.84551 -104.52106 11382 ft 288 kts 349°
2026-05-04 17:44 39.86545 -104.52245 11207 ft 285 kts 359°
2026-05-04 17:45 39.88488 -104.52207 11156 ft 273 kts 359°
2026-05-04 17:45 39.90335 -104.52182 11145 ft 260 kts 358°
2026-05-04 17:45 39.92097 -104.52164 11120 ft 247 kts 358°
2026-05-04 17:45 39.93788 -104.52236 11117 ft 242 kts 345°
2026-05-04 17:46 39.95295 -104.53135 11118 ft 239 kts 327°
2026-05-04 17:46 39.96768 -104.54131 11112 ft 240 kts 334°
2026-05-04 17:46 39.98289 -104.55052 11106 ft 241 kts 334°
2026-05-04 17:46 39.99808 -104.55973 11102 ft 241 kts 333°
2026-05-04 17:47 40.01177 -104.57213 11099 ft 241 kts 318°
2026-05-04 17:47 40.02425 -104.58675 11092 ft 241 kts 318°
2026-05-04 17:47 40.03670 -104.60143 11087 ft 241 kts 317°
2026-05-04 17:47 40.04914 -104.61612 11020 ft 242 kts 317°
2026-05-04 17:48 40.06128 -104.63164 10640 ft 246 kts 306°
2026-05-04 17:48 40.06730 -104.65235 10274 ft 250 kts 272°